Time,TemperatureF,DewpointF,PressureIn,WindDirection,WindDirectionDegrees,WindSpeedMPH,WindSpeedGustMPH,Humidity,HourlyPrecipIn,Conditions,Clouds,dailyrainin,SoftwareType,DateUTC
2015-03-03 00:03:00,50.5,48.8,29.92,NNW,342,0.0,0.0,94,0.00,,,0.24,Wunderground v.1.15,2015-03-03 07:03:00,
2015-03-03 00:09:00,50.5,48.8,29.91,NNW,342,0.0,0.0,94,0.00,,,0.24,Wunderground v.1.15,2015-03-03 07:09:00,
2015-03-03 00:15:00,50.5,48.8,29.91,NNW,342,0.0,0.0,94,0.00,,,0.24,Wunderground v.1.15,2015-03-03 07:15:00,
2015-03-03 00:21:00,50.5,48.8,29.91,NNW,342,0.0,0.0,94,0.00,,,0.24,Wunderground v.1.15,2015-03-03 07:21:00,
2015-03-03 00:27:00,50.4,48.7,29.91,NNW,342,0.0,0.0,94,0.00,,,0.24,Wunderground v.1.15,2015-03-03 07:27:00,
2015-03-03 00:33:00,50.3,48.6,29.90,NNW,342,0.0,0.0,94,0.00,,,0.24,Wunderground v.1.15,2015-03-03 07:33:00,
2015-03-03 00:39:00,50.2,48.5,29.90,NNW,342,0.0,0.0,94,0.00,,,0.24,Wunderground v.1.15,2015-03-03 07:39:00,
2015-03-03 00:44:00,50.0,48.1,29.90,NNW,342,0.0,0.0,93,0.00,,,0.24,Wunderground v.1.15,2015-03-03 07:44:00,
2015-03-03 00:50:00,50.0,48.1,29.90,NNW,342,0.0,0.0,93,0.00,,,0.24,Wunderground v.1.15,2015-03-03 07:50:00,
2015-03-03 00:56:00,49.9,48.0,29.90,NNW,342,0.0,0.0,93,0.00,,,0.24,Wunderground v.1.15,2015-03-03 07:56:00,
2015-03-03 01:02:00,49.8,47.9,29.90,NNW,342,0.0,0.0,93,0.00,,,0.24,Wunderground v.1.15,2015-03-03 08:02:00,
2015-03-03 01:08:00,49.8,48.1,29.90,NNW,342,0.0,0.0,94,0.00,,,0.24,Wunderground v.1.15,2015-03-03 08:08:00,
2015-03-03 01:14:00,49.8,48.1,29.90,NNW,342,0.0,0.0,94,0.00,,,0.00,Wunderground v.1.15,2015-03-03 08:14:00,
2015-03-03 01:20:00,49.8,48.1,29.90,NNW,342,0.0,0.0,94,0.00,,,0.00,Wunderground v.1.15,2015-03-03 08:20:00,
2015-03-03 01:25:00,49.7,48.0,29.90,NNW,342,0.0,0.0,94,0.00,,,0.00,Wunderground v.1.15,2015-03-03 08:25:00,
2015-03-03 01:31:00,49.6,47.7,29.89,NNW,342,0.0,0.0,93,0.00,,,0.00,Wunderground v.1.15,2015-03-03 08:31:00,
2015-03-03 01:37:00,49.6,47.9,29.90,NNW,342,0.0,0.0,94,0.00,,,0.00,Wunderground v.1.15,2015-03-03 08:37:00,
2015-03-03 01:42:00,49.6,47.7,29.88,NNW,342,0.0,0.0,93,0.00,,,0.00,Wunderground v.1.15,2015-03-03 08:42:00,
2015-03-03 01:47:00,49.5,47.6,29.88,NNW,342,0.0,0.0,93,0.00,,,0.00,Wunderground v.1.15,2015-03-03 08:47:00,
2015-03-03 01:52:00,49.5,47.6,29.89,NNW,342,0.0,0.0,93,0.00,,,0.00,Wunderground v.1.15,2015-03-03 08:52:00,
2015-03-03 01:57:00,49.4,47.5,29.89,NNW,342,0.0,0.0,93,0.00,,,0.00,Wunderground v.1.15,2015-03-03 08:57:00,
2015-03-03 02:02:00,49.4,47.5,29.89,NNW,342,0.0,0.0,93,0.00,,,0.00,Wunderground v.1.15,2015-03-03 09:02:00,
2015-03-03 02:07:00,49.4,47.5,29.89,NNW,342,0.0,0.0,93,0.00,,,0.00,Wunderground v.1.15,2015-03-03 09:07:00,
2015-03-03 02:12:00,49.4,47.5,29.89,NNW,342,0.0,0.0,93,0.00,,,0.00,Wunderground v.1.15,2015-03-03 09:12:00,
2015-03-03 02:18:00,49.5,47.6,29.88,NNW,342,0.0,0.0,93,0.00,,,0.00,Wunderground v.1.15,2015-03-03 09:18:00,
2015-03-03 02:22:00,49.5,47.6,29.88,NNW,342,0.0,0.0,93,0.00,,,0.00,Wunderground v.1.15,2015-03-03 09:22:00,
2015-03-03 02:28:00,49.5,47.6,29.88,NNW,342,0.0,0.0,93,0.00,,,0.00,Wunderground v.1.15,2015-03-03 09:28:00,
2015-03-03 02:33:00,49.4,47.5,29.88,NNW,342,0.0,0.0,93,0.00,,,0.00,Wunderground v.1.15,2015-03-03 09:33:00,
2015-03-03 02:38:00,49.3,47.4,29.88,NNW,342,0.0,0.0,93,0.00,,,0.00,Wunderground v.1.15,2015-03-03 09:38:00,
2015-03-03 02:43:00,49.3,47.4,29.88,NNW,342,0.0,0.0,93,0.00,,,0.00,Wunderground v.1.15,2015-03-03 09:43:00,
2015-03-03 02:48:00,49.2,47.3,29.87,NNW,342,0.0,0.0,93,0.00,,,0.00,Wunderground v.1.15,2015-03-03 09:48:00,
2015-03-03 02:53:00,49.1,47.2,29.87,NNW,342,0.0,0.0,93,0.00,,,0.00,Wunderground v.1.15,2015-03-03 09:53:00,
2015-03-03 02:58:00,49.0,47.1,29.87,NNW,342,0.0,0.0,93,0.00,,,0.00,Wunderground v.1.15,2015-03-03 09:58:00,
2015-03-03 03:03:00,49.0,47.1,29.87,NNW,342,0.0,0.0,93,0.00,,,0.00,Wunderground v.1.15,2015-03-03 10:03:00,
2015-03-03 03:08:00,48.8,46.9,29.87,NNW,342,0.0,0.0,93,0.00,,,0.00,Wunderground v.1.15,2015-03-03 10:08:00,
2015-03-03 03:13:00,48.6,46.7,29.87,NNW,342,0.0,0.0,93,0.00,,,0.00,Wunderground v.1.15,2015-03-03 10:13:00,
2015-03-03 03:18:00,48.4,46.2,29.87,NNW,342,0.0,0.0,92,0.00,,,0.00,Wunderground v.1.15,2015-03-03 10:18:00,
2015-03-03 03:23:00,48.3,46.1,29.86,NNW,342,0.0,0.0,92,0.00,,,0.00,Wunderground v.1.15,2015-03-03 10:23:00,
2015-03-03 03:28:00,48.3,46.4,29.86,NNW,342,0.0,0.0,93,0.00,,,0.00,Wunderground v.1.15,2015-03-03 10:28:00,
2015-03-03 03:33:00,48.2,46.3,29.86,NNW,342,0.0,0.0,93,0.00,,,0.00,Wunderground v.1.15,2015-03-03 10:33:00,
2015-03-03 03:38:00,48.2,46.3,29.86,NNW,342,0.0,0.0,93,0.00,,,0.00,Wunderground v.1.15,2015-03-03 10:38:00,
2015-03-03 03:43:00,48.1,46.2,29.86,NNW,342,0.0,0.0,93,0.00,,,0.00,Wunderground v.1.15,2015-03-03 10:43:00,
2015-03-03 03:48:00,48.0,46.1,29.86,NNW,342,0.0,0.0,93,0.00,,,0.00,Wunderground v.1.15,2015-03-03 10:48:00,
2015-03-03 03:53:00,47.9,45.7,29.86,NNW,342,0.0,0.0,92,0.00,,,0.00,Wunderground v.1.15,2015-03-03 10:53:00,
2015-03-03 03:58:00,47.7,45.5,29.86,NNW,342,0.0,0.0,92,0.00,,,0.00,Wunderground v.1.15,2015-03-03 10:58:00,
2015-03-03 04:03:00,47.6,45.4,29.86,NNW,342,0.0,0.0,92,0.00,,,0.00,Wunderground v.1.15,2015-03-03 11:03:00,
2015-03-03 04:08:00,47.5,45.3,29.86,NNW,342,0.0,0.0,92,0.00,,,0.00,Wunderground v.1.15,2015-03-03 11:08:00,
2015-03-03 04:13:00,47.5,45.3,29.86,NNW,342,0.0,0.0,92,0.00,,,0.00,Wunderground v.1.15,2015-03-03 11:13:00,
2015-03-03 04:18:00,47.4,45.2,29.86,NNW,342,0.0,0.0,92,0.00,,,0.01,Wunderground v.1.15,2015-03-03 11:18:00,
2015-03-03 04:23:00,47.3,45.1,29.86,NNW,342,0.0,0.0,92,0.00,,,0.01,Wunderground v.1.15,2015-03-03 11:23:00,
2015-03-03 04:28:00,47.2,45.0,29.86,NNW,342,0.0,0.0,92,0.00,,,0.01,Wunderground v.1.15,2015-03-03 11:28:00,
2015-03-03 04:33:00,47.2,45.0,29.86,NNW,342,0.0,0.0,92,0.00,,,0.01,Wunderground v.1.15,2015-03-03 11:33:00,
2015-03-03 04:38:00,47.1,44.9,29.86,NNW,342,0.0,0.0,92,0.00,,,0.01,Wunderground v.1.15,2015-03-03 11:38:00,
2015-03-03 04:43:00,47.0,44.8,29.86,NNW,342,0.0,0.0,92,0.00,,,0.01,Wunderground v.1.15,2015-03-03 11:43:00,
2015-03-03 04:48:00,47.0,44.8,29.86,NNW,342,0.0,0.0,92,0.00,,,0.01,Wunderground v.1.15,2015-03-03 11:48:00,
2015-03-03 04:53:00,46.9,44.7,29.86,NNW,342,0.0,0.0,92,0.00,,,0.01,Wunderground v.1.15,2015-03-03 11:53:00,
2015-03-03 04:58:00,46.8,44.6,29.85,NNW,342,0.0,0.0,92,0.00,,,0.01,Wunderground v.1.15,2015-03-03 11:58:00,
2015-03-03 05:03:00,46.7,44.5,29.86,NNW,342,0.0,0.0,92,0.00,,,0.01,Wunderground v.1.15,2015-03-03 12:03:00,
2015-03-03 05:08:00,46.6,44.4,29.86,NNW,342,0.0,0.0,92,0.00,,,0.01,Wunderground v.1.15,2015-03-03 12:08:00,
2015-03-03 05:13:00,46.5,44.3,29.86,NNW,342,0.0,0.0,92,0.00,,,0.01,Wunderground v.1.15,2015-03-03 12:13:00,
2015-03-03 05:18:00,46.4,44.2,29.86,NNW,342,0.0,0.0,92,0.00,,,0.01,Wunderground v.1.15,2015-03-03 12:18:00,
2015-03-03 05:23:00,46.4,44.2,29.86,NNW,342,0.0,0.0,92,0.00,,,0.01,Wunderground v.1.15,2015-03-03 12:23:00,
2015-03-03 05:29:00,46.3,44.1,29.86,NNW,342,0.0,0.0,92,0.00,,,0.01,Wunderground v.1.15,2015-03-03 12:29:00,
2015-03-03 05:34:00,46.2,44.0,29.86,NNW,342,0.0,0.0,92,0.00,,,0.01,Wunderground v.1.15,2015-03-03 12:34:00,
2015-03-03 05:39:00,46.1,43.9,29.86,NNW,342,0.0,0.0,92,0.00,,,0.01,Wunderground v.1.15,2015-03-03 12:39:00,
2015-03-03 05:44:00,46.0,43.8,29.86,NNW,342,0.0,0.0,92,0.00,,,0.01,Wunderground v.1.15,2015-03-03 12:44:00,
2015-03-03 05:49:00,45.9,43.7,29.86,NNW,342,0.0,0.0,92,0.00,,,0.01,Wunderground v.1.15,2015-03-03 12:49:00,
2015-03-03 05:54:00,45.8,43.6,29.86,NNW,342,0.0,0.0,92,0.00,,,0.01,Wunderground v.1.15,2015-03-03 12:54:00,
2015-03-03 05:59:00,45.7,43.5,29.87,NNW,342,0.0,0.0,92,0.00,,,0.01,Wunderground v.1.15,2015-03-03 12:59:00,
2015-03-03 06:04:00,45.6,43.4,29.87,NNW,342,0.0,0.0,92,0.00,,,0.01,Wunderground v.1.15,2015-03-03 13:04:00,
2015-03-03 06:09:00,45.6,43.4,29.87,NNW,342,0.0,0.0,92,0.00,,,0.01,Wunderground v.1.15,2015-03-03 13:09:00,
2015-03-03 06:14:00,45.6,43.4,29.87,NNW,342,0.0,0.0,92,0.00,,,0.01,Wunderground v.1.15,2015-03-03 13:14:00,
2015-03-03 06:19:00,45.5,43.3,29.87,NNW,342,0.0,0.0,92,0.00,,,0.01,Wunderground v.1.15,2015-03-03 13:19:00,
2015-03-03 06:24:00,45.4,43.2,29.87,NNW,342,0.0,0.0,92,0.00,,,0.01,Wunderground v.1.15,2015-03-03 13:24:00,
2015-03-03 06:29:00,45.3,43.1,29.87,NNW,342,0.0,0.0,92,0.00,,,0.01,Wunderground v.1.15,2015-03-03 13:29:00,
2015-03-03 06:34:00,45.2,43.0,29.87,NNW,342,0.0,0.0,92,0.00,,,0.01,Wunderground v.1.15,2015-03-03 13:34:00,
2015-03-03 06:39:00,45.2,43.0,29.87,NNW,342,0.0,0.0,92,0.00,,,0.01,Wunderground v.1.15,2015-03-03 13:39:00,
2015-03-03 06:44:00,45.1,42.9,29.88,NNW,342,0.0,0.0,92,0.00,,,0.01,Wunderground v.1.15,2015-03-03 13:44:00,
2015-03-03 06:49:00,45.1,42.9,29.88,NNW,342,0.0,0.0,92,0.00,,,0.01,Wunderground v.1.15,2015-03-03 13:49:00,
2015-03-03 06:54:00,45.0,42.8,29.88,NNW,342,0.0,0.0,92,0.00,,,0.01,Wunderground v.1.15,2015-03-03 13:54:00,
2015-03-03 06:59:00,44.9,42.7,29.88,NNW,342,0.0,0.0,92,0.00,,,0.01,Wunderground v.1.15,2015-03-03 13:59:00,
2015-03-03 07:04:00,44.8,42.3,29.88,NNW,342,0.0,0.0,91,0.00,,,0.01,Wunderground v.1.15,2015-03-03 14:04:00,
2015-03-03 07:09:00,44.7,42.2,29.88,NNW,342,0.0,0.0,91,0.00,,,0.01,Wunderground v.1.15,2015-03-03 14:09:00,
2015-03-03 07:14:00,44.6,42.4,29.88,NNW,342,0.0,0.0,92,0.00,,,0.01,Wunderground v.1.15,2015-03-03 14:14:00,
2015-03-03 07:19:00,44.6,42.4,29.88,NNW,342,0.0,0.0,92,0.00,,,0.01,Wunderground v.1.15,2015-03-03 14:19:00,
2015-03-03 07:24:00,44.7,42.5,29.88,NNW,342,0.0,0.0,92,0.00,,,0.01,Wunderground v.1.15,2015-03-03 14:24:00,
2015-03-03 07:29:00,44.9,42.7,29.88,NNW,339,0.0,0.0,92,0.00,,,0.01,Wunderground v.1.15,2015-03-03 14:29:00,
2015-03-03 07:34:00,45.1,42.9,29.88,NNW,339,0.0,0.0,92,0.00,,,0.01,Wunderground v.1.15,2015-03-03 14:34:00,
2015-03-03 07:39:00,45.4,43.5,29.88,NNW,339,0.0,0.0,93,0.00,,,0.01,Wunderground v.1.15,2015-03-03 14:39:00,
2015-03-03 07:44:00,45.6,43.7,29.89,NNW,339,0.0,0.0,93,0.00,,,0.01,Wunderground v.1.15,2015-03-03 14:44:00,
2015-03-03 07:50:00,45.9,44.0,29.89,NNW,339,0.0,0.0,93,0.00,,,0.01,Wunderground v.1.15,2015-03-03 14:50:00,
2015-03-03 07:55:00,46.3,44.4,29.89,NNW,339,0.0,0.0,93,0.00,,,0.01,Wunderground v.1.15,2015-03-03 14:55:00,
2015-03-03 08:00:00,46.8,44.9,29.89,NNW,339,0.0,0.0,93,0.00,,,0.01,Wunderground v.1.15,2015-03-03 15:00:00,
2015-03-03 08:05:00,47.3,45.4,29.89,NNW,339,0.0,0.0,93,0.00,,,0.01,Wunderground v.1.15,2015-03-03 15:05:00,
2015-03-03 08:10:00,47.8,45.9,29.89,NNW,339,0.0,0.0,93,0.00,,,0.01,Wunderground v.1.15,2015-03-03 15:10:00,
2015-03-03 08:15:00,48.2,46.3,29.89,NNW,339,0.0,0.0,93,0.00,,,0.01,Wunderground v.1.15,2015-03-03 15:15:00,
2015-03-03 08:20:00,48.7,46.5,29.89,NNW,339,0.0,0.0,92,0.00,,,0.01,Wunderground v.1.15,2015-03-03 15:20:00,
2015-03-03 08:25:00,49.1,46.9,29.90,NNW,346,0.0,0.0,92,0.00,,,0.01,Wunderground v.1.15,2015-03-03 15:25:00,
2015-03-03 08:30:00,49.5,47.0,29.90,NNW,346,0.0,0.0,91,0.00,,,0.01,Wunderground v.1.15,2015-03-03 15:30:00,
2015-03-03 08:35:00,49.9,47.1,29.90,NNW,346,0.0,0.0,90,0.00,,,0.01,Wunderground v.1.15,2015-03-03 15:35:00,
2015-03-03 08:40:00,50.4,47.3,29.90,NNW,346,0.0,0.0,89,0.00,,,0.01,Wunderground v.1.15,2015-03-03 15:40:00,
2015-03-03 08:45:00,50.9,46.9,29.90,NNW,346,0.0,0.0,86,0.00,,,0.01,Wunderground v.1.15,2015-03-03 15:45:00,
2015-03-03 08:50:00,51.5,46.8,29.90,NNW,346,0.0,0.0,84,0.00,,,0.01,Wunderground v.1.15,2015-03-03 15:50:00,
2015-03-03 08:55:00,52.0,46.3,29.90,NNW,346,0.0,0.0,81,0.00,,,0.01,Wunderground v.1.15,2015-03-03 15:55:00,
2015-03-03 09:00:00,52.7,46.0,29.91,NNW,346,0.0,0.0,78,0.00,,,0.01,Wunderground v.1.15,2015-03-03 16:00:00,
2015-03-03 09:05:00,53.2,46.2,29.90,NNW,346,0.0,0.0,77,0.00,,,0.01,Wunderground v.1.15,2015-03-03 16:05:00,
2015-03-03 09:10:00,53.5,45.8,29.91,NNW,346,0.0,0.0,75,0.00,,,0.01,Wunderground v.1.15,2015-03-03 16:10:00,
2015-03-03 09:15:00,53.9,45.8,29.91,NNW,346,0.0,0.0,74,0.00,,,0.01,Wunderground v.1.15,2015-03-03 16:15:00,
2015-03-03 09:20:00,54.1,45.6,29.90,NNW,346,0.0,0.0,73,0.00,,,0.01,Wunderground v.1.15,2015-03-03 16:20:00,
2015-03-03 09:25:00,54.4,45.2,29.91,NNW,346,0.0,0.0,71,0.00,,,0.01,Wunderground v.1.15,2015-03-03 16:25:00,
2015-03-03 09:30:00,54.7,44.7,29.91,NNW,346,0.0,0.0,69,0.00,,,0.01,Wunderground v.1.15,2015-03-03 16:30:00,
2015-03-03 09:35:00,55.0,44.6,29.91,NNW,346,0.0,0.0,68,0.00,,,0.01,Wunderground v.1.15,2015-03-03 16:35:00,
2015-03-03 09:40:00,55.4,45.0,29.91,NNW,346,0.0,0.0,68,0.00,,,0.01,Wunderground v.1.15,2015-03-03 16:40:00,
2015-03-03 09:45:00,55.6,44.4,29.91,NNW,346,0.0,0.0,66,0.00,,,0.01,Wunderground v.1.15,2015-03-03 16:45:00,
2015-03-03 09:50:00,55.8,43.8,29.91,NNW,346,0.0,0.0,64,0.00,,,0.01,Wunderground v.1.15,2015-03-03 16:50:00,
2015-03-03 09:55:00,56.2,45.0,29.91,NNW,346,0.0,0.0,66,0.00,,,0.01,Wunderground v.1.15,2015-03-03 16:55:00,
2015-03-03 10:00:00,56.2,44.6,29.91,NNW,346,0.0,2.0,65,0.00,,,0.01,Wunderground v.1.15,2015-03-03 17:00:00,
2015-03-03 10:05:00,56.1,43.7,29.91,NNW,346,1.0,4.0,63,0.00,,,0.01,Wunderground v.1.15,2015-03-03 17:05:00,
2015-03-03 10:10:00,56.1,44.1,29.91,NNW,346,1.0,3.0,64,0.00,,,0.01,Wunderground v.1.15,2015-03-03 17:10:00,
2015-03-03 10:15:00,56.3,43.9,29.91,NNW,346,1.0,3.0,63,0.00,,,0.01,Wunderground v.1.15,2015-03-03 17:15:00,
2015-03-03 10:21:00,56.2,44.6,29.91,NNW,345,0.0,1.0,65,0.00,,,0.01,Wunderground v.1.15,2015-03-03 17:21:00,
2015-03-03 10:26:00,56.0,44.0,29.91,NNW,345,0.0,1.0,64,0.00,,,0.01,Wunderground v.1.15,2015-03-03 17:26:00,
2015-03-03 10:31:00,56.2,44.2,29.91,NNW,345,2.0,2.0,64,0.00,,,0.01,Wunderground v.1.15,2015-03-03 17:31:00,
2015-03-03 10:36:00,56.6,43.7,29.91,NNW,346,2.0,3.0,62,0.00,,,0.01,Wunderground v.1.15,2015-03-03 17:36:00,
2015-03-03 10:41:00,57.0,44.9,29.91,NNW,343,2.0,5.0,64,0.00,,,0.01,Wunderground v.1.15,2015-03-03 17:41:00,
2015-03-03 10:46:00,57.5,45.0,29.91,NW,315,4.0,8.0,63,0.00,,,0.01,Wunderground v.1.15,2015-03-03 17:46:00,
2015-03-03 10:51:00,57.6,45.9,29.91,NW,314,2.0,6.0,65,0.00,,,0.01,Wunderground v.1.15,2015-03-03 17:51:00,
2015-03-03 10:56:00,57.6,46.3,29.91,WNW,303,2.0,6.0,66,0.00,,,0.01,Wunderground v.1.15,2015-03-03 17:56:00,
2015-03-03 11:01:00,57.2,45.5,29.91,NW,306,2.0,3.0,65,0.00,,,0.01,Wunderground v.1.15,2015-03-03 18:01:00,
2015-03-03 11:06:00,56.8,44.7,29.91,NW,306,1.0,3.0,64,0.00,,,0.01,Wunderground v.1.15,2015-03-03 18:06:00,
2015-03-03 11:11:00,56.5,44.5,29.90,NW,310,1.0,1.0,64,0.00,,,0.01,Wunderground v.1.15,2015-03-03 18:11:00,
2015-03-03 11:16:00,56.4,44.0,29.90,NW,317,0.0,5.0,63,0.00,,,0.01,Wunderground v.1.15,2015-03-03 18:16:00,
2015-03-03 11:21:00,56.6,45.0,29.90,NNW,332,1.0,4.0,65,0.00,,,0.01,Wunderground v.1.15,2015-03-03 18:21:00,
2015-03-03 11:26:00,56.9,44.0,29.90,NNW,332,3.0,5.0,62,0.00,,,0.01,Wunderground v.1.15,2015-03-03 18:26:00,
2015-03-03 11:31:00,57.2,44.3,29.90,NNW,331,0.0,4.0,62,0.00,,,0.01,Wunderground v.1.15,2015-03-03 18:31:00,
2015-03-03 11:36:00,57.5,44.6,29.90,NNW,331,0.0,4.0,62,0.00,,,0.01,Wunderground v.1.15,2015-03-03 18:36:00,
2015-03-03 11:41:00,57.8,44.0,29.89,NNW,331,1.0,1.0,60,0.00,,,0.01,Wunderground v.1.15,2015-03-03 18:41:00,
2015-03-03 11:46:00,57.9,43.7,29.89,NNW,342,2.0,5.0,59,0.00,,,0.01,Wunderground v.1.15,2015-03-03 18:46:00,
2015-03-03 11:51:00,58.2,44.4,29.89,NNW,342,0.0,1.0,60,0.00,,,0.01,Wunderground v.1.15,2015-03-03 18:51:00,
2015-03-03 11:56:00,58.6,43.9,29.89,NNW,342,0.0,3.0,58,0.00,,,0.01,Wunderground v.1.15,2015-03-03 18:56:00,
2015-03-03 12:01:00,58.9,43.2,29.89,North,350,0.0,1.0,56,0.00,,,0.01,Wunderground v.1.15,2015-03-03 19:01:00,
2015-03-03 12:06:00,59.1,43.4,29.89,NNW,344,4.0,4.0,56,0.00,,,0.01,Wunderground v.1.15,2015-03-03 19:06:00,